Weather History for Louisville Bowman, KY

Change the Weather History Date:

Monday, October 22, 2012

  Actual Average Record
Temperature  
Mean Temperature 67 °F 56 °F  
Max Temperature 78 °F 67 °F 85 °F (1953)
Min Temperature 56 °F 46 °F 23 °F (1952)
Degree Days  
Heating Degree Days 0 9  
Month to date heating degree days 175 146  
Since 1 July heating degree days 213 182  
Cooling Degree Days 2 1  
Month to date cooling degree days 7 29  
Year to date cooling degree days 1840 1442  
Growing Degree Days 18 (Base 50)    
Moisture  
Dew Point 52 °F    
Average Humidity 59    
Maximum Humidity 75    
Minimum Humidity 42    
Precipitation  
Precipitation 0.00 in 0.11 in 2.64 in (1983)
Month to date precipitation 1.71 2.32  
Year to date precipitation 36.79 37.02  
Sea Level Pressure  
Sea Level Pressure 30.09 in    
Wind  
Wind Speed 5 mph (SSE)    
Max Wind Speed 13 mph    
Max Gust Speed 18 mph    
Visibility 10 miles    
Events Rain    
T = Trace of Precipitation, MM = Missing Value Source: NWS Daily Summary

Daily Weather History Graph

Daily Weather History Graph

Search for Another Location

Airport:

Trip Planner

Search our weather history database for the weather conditions in past years. The results will help you decide how hot, cold, wet, or windy it might be!

Date:

Astronomy

Oct. 22, 2012 Rise Set
Actual Time 7:58 AM EDT 6:54 PM EDT
Civil Twilight 7:31 AM EDT 7:21 PM EDT
Nautical Twilight 7:01 AM EDT 7:52 PM EDT
Astronomical Twilight 6:30 AM EDT 8:22 PM EDT
Moon 2:56 PM EDT (10/22) 12:51 AM EDT (10/22)
Length of Visible Light 11h 49m
Length of Day
10h 55m
First Quarter, 56% of the Moon is Illuminated
Oct 22
First Quarter
Oct 29
Full
Nov 6
Last Quarter
Nov 13
New
Nov 20
First Quarter

Hourly Weather History & Observations

Time (EDT) Temp. Dew Point Humidity Pressure Visibility Wind Dir Wind Speed Gust Speed Precip Events Conditions
12:53 AM 57.9 °F 48.0 °F 70% 30.07 in 10.0 mi Calm Calm - N/A   Mostly Cloudy
1:53 AM 59.0 °F 48.9 °F 69% 30.09 in 10.0 mi Calm Calm - N/A   Mostly Cloudy
2:53 AM 59.0 °F 48.9 °F 69% 30.09 in 10.0 mi SE 3.5 mph - N/A   Overcast
3:53 AM 60.1 °F 50.0 °F 69% 30.09 in 10.0 mi Calm Calm - N/A   Overcast
4:53 AM 59.0 °F 51.1 °F 75% 30.09 in 10.0 mi Calm Calm - N/A   Overcast
5:53 AM 62.1 °F 50.0 °F 65% 30.10 in 10.0 mi Calm Calm - N/A   Overcast
6:53 AM 62.1 °F 50.0 °F 65% 30.11 in 10.0 mi SE 3.5 mph - N/A   Overcast
7:53 AM 62.1 °F 51.1 °F 67% 30.12 in 10.0 mi SSE 3.5 mph - N/A   Overcast
8:53 AM 62.1 °F 51.1 °F 67% 30.14 in 10.0 mi SSE 3.5 mph - N/A   Overcast
9:53 AM 64.0 °F 52.0 °F 65% 30.14 in 10.0 mi South 6.9 mph - N/A   Overcast
10:53 AM 66.9 °F 53.1 °F 61% 30.14 in 10.0 mi South 6.9 mph - N/A   Mostly Cloudy
11:53 AM 70.0 °F 53.1 °F 55% 30.13 in 10.0 mi South 11.5 mph - N/A   Mostly Cloudy
12:53 PM 72.0 °F 53.1 °F 51% 30.12 in 10.0 mi South 6.9 mph 16.1 mph N/A   Mostly Cloudy
1:53 PM 75.0 °F 54.0 °F 48% 30.10 in 10.0 mi South 6.9 mph - N/A   Partly Cloudy
2:53 PM 78.1 °F 54.0 °F 43% 30.07 in 10.0 mi South 6.9 mph - N/A   Clear
3:53 PM 78.1 °F 53.1 °F 42% 30.07 in 10.0 mi South 4.6 mph - N/A   Clear
4:53 PM 78.1 °F 54.0 °F 43% 30.07 in 10.0 mi SE 5.8 mph - 0.00 in Rain Light Rain
5:53 PM 75.9 °F 54.0 °F 46% 30.08 in 10.0 mi SSE 5.8 mph - 0.00 in   Clear
6:53 PM 73.9 °F 54.0 °F 50% 30.07 in 10.0 mi SE 4.6 mph - N/A   Clear
7:53 PM 72.0 °F 54.0 °F 53% 30.06 in 10.0 mi SSE 5.8 mph - N/A   Clear
8:53 PM 71.6 °F 53.6 °F 53% 30.06 in 10.0 mi South 6.9 mph - N/A   Clear
9:53 PM 70.0 °F 52.0 °F 53% 30.03 in 10.0 mi South 9.2 mph - N/A   Clear
10:53 PM 69.1 °F 51.1 °F 53% 30.05 in 10.0 mi South 4.6 mph - N/A   Clear
11:53 PM 66.9 °F 51.1 °F 57% 30.05 in 10.0 mi SSE 4.6 mph - N/A   Clear